Location: Heilbronn
(49.1548°N, 9.2780°E)
Time: 08:57:45
(UTC+01:00)

ISS - Pass Details

Date: 22 March 2017
Orbit: 401 x 407 km, 51.6° (Epoch: 25 November)

Event Time Altitude Azimuth Distance (km) Brightness Sun altitude
Exits shadow 03:59:48 19° 132° (SE) 1,074 -1.6 -22.9°
Drops below altitude 10° 04:00:56 10° 127° (SE) 1,516 -0.7 -22.8°
Enters shadow 05:02:28 -57° 312° (NW) 11,231 3.4 -13.5°
